Regional Weather Roundup
Issued by NWS

Home | Current Version | Previous Version | Graphics & Text | Print | Product List | Glossary On
Versions: 1 2 3 4 5 6 7 8 9 10 11 12 13 14 15 16 17 18 19 20 21 22 23 24 25 26 27 28 29 30 31 32 33 34 35 36 37 38 39 40 41 42 43 44 45 46 47 48 49 50
000
ASUS44 KMEG 171100
RWRTN
TENNESSEE HOURLY STATE WEATHER ROUNDUP
NATIONAL WEATHER SERVICE MEMPHIS TN
500 AM CST WED DEC 17 2014

TNZ002-004-019-021-049-052-054-088>092-171200-
WEST TENNESSEE

CITY           SKY/WX    TMP DP  RH WIND       PRES   REMARKS
MEMPHIS INTL   MOCLDY    32  27  81 N5        30.29F WCI  27
NWS MEMPHIS      N/A     31 N/A N/A MISG        N/A
JACKSON        CLOUDY    38  30  73 N8        30.28F WCI  32
DYERSBURG      CLOUDY    36  19  51 N10       30.31F WCI  28
UNION CITY     CLOUDY    30  28  93 N9        30.29S WCI  22
PARIS          CLOUDY    32  28  86 N6        30.28S WCI  26
LEXINGTON      CLOUDY    37  30  75 N5        30.26S WCI  34
SAVANNAH       CLOUDY    39  34  81 N6        30.26S WCI  35
$$

TNZ008-025-027-028-033-062-065-066-171200-
NORTH MIDDLE TENNESSEE

CITY           SKY/WX    TMP DP  RH WIND       PRES   REMARKS
NASHVILLE      CLOUDY    38  34  85 NW6       30.27R WCI  33
CLARKSVILLE    CLOUDY    35  30  82 NW8       30.28R WCI  29
COOKEVILLE     CLOUDY    39  37  93 N7        30.21R WCI  34
CROSSVILLE     CLOUDY    38  33  82 NW7       30.19R WCI  33
$$

TNZ061-075-076-078-094-096-097-171200-
SOUTH MIDDLE TENNESSEE

CITY           SKY/WX    TMP DP  RH WIND       PRES   REMARKS
FAYETTEVILLE   CLOUDY    37  34  87 MISG      30.22S
TULLAHOMA      CLOUDY    37  34  87 N6        30.23R WCI  33
WINCHESTER     CLOUDY    39  36  87 N5        30.23S
SHELBYVILLE    CLOUDY    41  37  87 N8        30.24S
$$

TNZ017-018-042-046-047-171200-
NORTHEAST TENNESSEE

CITY           SKY/WX    TMP DP  RH WIND       PRES   REMARKS
TRI CITIES     CLOUDY    43  37  79 SW5       30.15R
ELIZABETHTON   CLOUDY    39  36  87 SW7       30.14R WCI  34
$$

TNZ012-013-036-069-073-074-171200-
CENTRAL EAST TENNESSEE

CITY           SKY/WX    TMP DP  RH WIND       PRES   REMARKS
KNOXVILLE      CLOUDY    42  36  79 W7        30.19S
OAK RIDGE      CLOUDY    42  36  79 W5        30.21R
GATLINBURG     CLOUDY    41  34  75 W6        30.18S
$$

TNZ083-085-099-171200-
SOUTHEAST TENNESSEE

CITY           SKY/WX    TMP DP  RH WIND       PRES   REMARKS
CHATTANOOGA    CLOUDY    43  36  76 NW7       30.21R
$$

SKY/WX REPORTED AS FAIR MEANS FEW OR NO CLOUDS BELOW
12 THOUSAND FEET.




USA.gov is the U.S. government's official web portal to all federal, state and local government web resources and services.